PEGASUS DEB, 24197

Orbit data source: Space-Track

PEGASUS DEB, 24197 is space debris in LEO originally from a launch on Thu, 19 May 1994 UTC launched from the Air Force Western Test Range (AFWTR). Debris objects in space refer to the collection of defunct objects orbiting the Earth. Examples of debris include non-operational satellites, rocket bodies, and fragments generated from explosions, collisions, or faulty payload assembly.

Loading next visibility...
Identifier
24197, 1994-029JY
Orbit
LEO
Country
Flag of USUS
Related business
Manufacturer
Unknown
Mission
Spacecraft
Bus & Motor
Unknown
Mass
Unknown
Launch date (UTC)
1994-05-19 (32 years ago)
Launch vehicle
Unknown
Launch site
Air Force Western Test Range (AFWTR)
Object type
Payload
Rocket body
Debris
Shape & HBR
Unknown shape, 0.1 m
Radar Cross Section
Medium (>0.1 m² and <1 m²)

Expand to show TLE details & history
Last TLE update: 16 hours ago

TLE from 16 hours ago
0 PEGASUS DEB
1 24197U 94029JY  26207.63076660  .00002505  00000-0  23723-3 0  9990
2 24197  82.0874 267.3289 0071695 180.0229 307.9387 14.91276507702627
Epoch: 2026-07-26T15:08Z
TLE epoch observation values (Epoch: 2026-07-26T15:08:18.234Z)
Latitude
52.08411°
Longitude
-94.29468°
Altitude
571.904 km
Speed
7.597 km/s
True Right ascension
05h 08m 25s
True Declination
51° 54' 46"
Sunlit
Object was in daylight at epoch
Visualization orbit readout
Latitude
Unknown
Longitude
Unknown
Altitude
Unknown
Speed
Unknown
Apparent Right ascension
Unknown
Apparent Declination
Unknown
Sunlit
N/A
Visualization observer readout
Local Sidereal Time
20:30:16
Azimuth
Unknown
Elevation
Unknown
Doppler factor
Unknown
Orbital elements
Apogee altitude
640.945 km
Perigee altitude
541.015 km
Semi-major axis
6,969.117 km
Eccentricity
0.00717
Inclination
82.0874°
RAAN
267.3289°
Arg. of periapsis
180.0229°
True anomaly
307.28718°
Mean anomaly
307.9387°
Eccentric anomaly
307.6133°
Mean motion
3.73058 °/min
Orbital period
96.5 mins
BSTAR
0.00023723
Loading maneuver chart data...
Computing Atmospheric mass density...
Loading historical data...
Loading historical data...
Loading historical data...
Loading historical data...
Loading historical data...
Loading historical data...
Loading historical data...

Documentation

Showing up to 5 results
|